Location: ???????
(55.3754°N, 39.3545°E)
Time: 21:59:40
(UTC+00:00)

CZ-4B R/B - Pass Details

Date: 14 April 2026
Orbit: 808 x 880 km, 98.9° (Epoch: 11 May)

Event Time Altitude Azimuth Distance (km) Brightness Sun altitude
Exits shadow 17:10:58 - 155° (SSE) 3,351 5.8 -6.7°
Reaches altitude 10° 17:13:08 10° 154° (SSE) 2,496 5.2 -7.0°
Maximum altitude 17:18:41 77° 69° (ENE) 901 3.3 -7.7°
Drops below altitude 10° 17:24:21 10° 345° (NNW) 2,545 6.4 -8.4°
Sets 17:26:46 0° 344° (NNW) 3,492 7.2 -8.7°
